Hanford, WA
on Monday, January 14, 2013

Monday
Previous Day Next Day
Daily Summary
 ActualAverage (KMWH)Record (KMWH)
Temperature
Mean Temperature °F 30°F  
Max Temperature 31°F 36°F 55°F (1999)
Min Temperature 19°F 24°F 0°F (1997)
Degree Days
Heating Degree Days 40 35  
Month to date heating degree days 509  
Since 1 July heating degree days 3096  
Cooling Degree Days 0 0  
Month to date cooling degree days 0  
Year to date cooling degree days 0  
Moisture
Dew Point 21°F   
Average Humidity 83    
Maximum Humidity 95    
Minimum Humidity 63    
Precipitation
Precipitation 0.00 in 0.03 in 0.07 in (2004)
Month to date precipitation 0.68  
Year to date precipitation 0.68  
Wind
Wind Speed 3 mph   
Max Wind Speed 7 mph   
Max Gust Speed mph   
Visibility 13 miles   
Events     

Key: T is trace of precipitation, MM is missing value
Source: NWS Daily Summary
Time(PST)TemperatureDew PointHumidity Pressure Visibility Wind DirectionWind SpeedGust SpeedPrecipitationEvents Conditions
12:50 AM 21.4°F 18.7°F 89% 30.47 in 15.0 miles NE 2.3 mph - N/A   Overcast
1:50 AM 19.8°F 18.1°F 93% 30.47 in 15.0 miles NW 2.3 mph - N/A   Overcast
2:50 AM 21.6°F 18.9°F 89% 30.47 in 15.0 miles WNW 4.6 mph - N/A   Overcast
3:50 AM 20.7°F 18.3°F 91% 30.45 in 15.0 miles NW 3.5 mph - N/A   Overcast
4:50 AM 21.6°F 19.9°F 93% 30.44 in 15.0 miles WNW 3.5 mph - N/A   Overcast
5:50 AM 23.7°F 20.7°F 88% 30.42 in 15.0 miles SW 3.5 mph - N/A   Overcast
6:50 AM 23.4°F 21.0°F 91% 30.43 in 15.0 miles SSW 3.5 mph - N/A   Overcast
7:50 AM 23.7°F 20.8°F 89% 30.43 in 12.0 miles WSW 2.3 mph - N/A   Overcast
8:50 AM 24.3°F 21.0°F 87% 30.43 in 12.0 miles SW 4.6 mph - N/A   Overcast
9:50 AM 25.2°F 21.2°F 85% 30.39 in 12.0 miles North 3.5 mph - N/A   Overcast
10:50 AM 26.6°F 21.0°F 79% 30.39 in 15.0 miles NNW 3.5 mph - N/A   Mostly Cloudy
11:50 AM 29.1°F 21.0°F 72% 30.38 in 12.0 miles NNW 4.6 mph - N/A   Scattered Clouds
12:50 PM 30.0°F 21.4°F 70% 30.37 in 15.0 miles North 5.8 mph - N/A   Scattered Clouds
1:50 PM 31.8°F 20.5°F 63% 30.37 in 12.0 miles North 3.5 mph - N/A   Scattered Clouds
2:50 PM 31.8°F 21.2°F 65% 30.39 in 12.0 miles West 2.3 mph - N/A   Mostly Cloudy
3:50 PM 30.9°F 21.9°F 69% 30.41 in 12.0 miles WNW 3.5 mph - N/A   Mostly Cloudy
4:50 PM 26.8°F 21.7°F 81% 30.42 in 12.0 miles WNW 6.9 mph - N/A   Mostly Cloudy
5:50 PM 27.0°F 22.3°F 83% 30.43 in 12.0 miles West 6.9 mph - N/A   Mostly Cloudy
6:50 PM 25.5°F 21.6°F 85% 30.44 in 12.0 miles West 5.8 mph - N/A   Mostly Cloudy
10:50 PM 22.3°F 20.7°F 93% 30.50 in 10.0 miles South 2.3 mph - N/A   Overcast
11:50 PM 20.8°F 19.6°F 95% 30.51 in 15.0 miles NW 2.3 mph - N/A   Overcast
Moon Phase
Jan. 14 Jan. 18 Jan. 26 Feb. 03 Feb. 10
Sunrise:07:38 AM (PST) Moon Rise:09:00 AM (PST)1/14
Sunset:04:37 PM (PST) Moon Set:08:44 PM (PST)1/14

Copyright © 2014 The Weather Underground, Inc.